JAL4 RJTT-LFPG

Flight info

Callsign JAL4
Flight time N/A
Altitude 33000
Route INUBO Y808 PUTER/N0500F340 A590 PUGAL/N0494F350 A590 POWAL DCT HEDMI DCT NATES DCT ROCET/N0497F370 DCT IDROD DCT CIVED DCT BRW DCT AGMIF DCT 82N060W/M085F390 80N040W 75N020W 69N010W DCT PEMOS/N0488F410 DCT AKOMU DCT VAMEB UL612 MID/N0503F290 Y803 SFD UM605 BIBAX
Aircraft A359/H-SDE2E3GHIJ3J4J5LM1ORWXY/LB1D1

Departure

Time 2026-05-03 22:34
Airport Tokyo Haneda International Airport (RJTT)

Arrival

Time N/A
Airport Charles de Gaulle International Airport (LFPG)
Time Latitude Longitude Altitude Speed Heading
2026-05-03 22:26 35.56474 139.78232 30 ft 0 kts 56°
2026-05-03 22:32 35.56475 139.78253 29 ft 12 kts 91°
2026-05-03 22:32 35.56465 139.78396 29 ft 17 kts 73°
2026-05-03 22:33 35.56518 139.78524 29 ft 17 kts 60°
2026-05-03 22:33 35.56552 139.78649 30 ft 13 kts 108°
2026-05-03 22:33 35.56420 139.78779 29 ft 52 kts 149°
2026-05-03 22:33 35.55904 139.79143 30 ft 118 kts 150°
2026-05-03 22:34 35.55023 139.79781 84 ft 171 kts 154°
2026-05-03 22:34 35.53922 139.80568 462 ft 196 kts 156°
2026-05-03 22:34 35.52659 139.81371 934 ft 210 kts 153°
2026-05-03 22:34 35.51615 139.82701 1772 ft 230 kts 134°
2026-05-03 22:35 35.50801 139.84517 2037 ft 257 kts 114°
2026-05-03 22:35 35.50629 139.86790 2299 ft 278 kts 91°
2026-05-03 22:35 35.50939 139.89185 2687 ft 289 kts 80°
2026-05-03 22:35 35.51505 139.91573 3170 ft 294 kts 75°
2026-05-03 22:36 35.52178 139.93970 3677 ft 298 kts 73°
2026-05-03 22:36 35.52867 139.96365 4243 ft 300 kts 73°
2026-05-03 22:36 35.53541 139.98805 4713 ft 302 kts 74°
2026-05-03 22:36 35.54185 140.01274 5204 ft 305 kts 75°
2026-05-03 22:37 35.54807 140.03774 5671 ft 308 kts 76°
2026-05-03 22:37 35.55417 140.06306 6151 ft 310 kts 76°
2026-05-03 22:37 35.56019 140.08853 6604 ft 313 kts 76°
2026-05-03 22:37 35.56625 140.11428 7095 ft 315 kts 76°
2026-05-03 22:38 35.57236 140.14026 7570 ft 318 kts 76°
2026-05-03 22:38 35.57847 140.16620 8005 ft 322 kts 76°
2026-05-03 22:38 35.58481 140.19307 8477 ft 325 kts 76°
2026-05-03 22:38 35.59103 140.21944 8959 ft 327 kts 75°
2026-05-03 22:39 35.59750 140.24682 9431 ft 331 kts 75°
2026-05-03 22:39 35.60388 140.27382 9765 ft 338 kts 75°
2026-05-03 22:39 35.61054 140.30208 9958 ft 351 kts 75°
2026-05-03 22:39 35.61744 140.33142 10150 ft 364 kts 75°
2026-05-03 22:40 35.62458 140.36180 10323 ft 376 kts 75°
2026-05-03 22:40 35.63194 140.39315 10503 ft 387 kts 75°
2026-05-03 22:40 35.63950 140.42540 10678 ft 398 kts 75°
2026-05-03 22:40 35.64728 140.45861 10841 ft 409 kts 75°
2026-05-03 22:41 35.65522 140.49257 11010 ft 419 kts 75°
2026-05-03 22:41 35.66337 140.52748 11167 ft 429 kts 75°
2026-05-03 22:41 35.67167 140.56304 11390 ft 435 kts 75°
2026-05-03 22:41 35.68006 140.59899 11749 ft 439 kts 75°
2026-05-03 22:42 35.68848 140.63516 12095 ft 442 kts 75°
2026-05-03 22:42 35.69696 140.67164 12436 ft 446 kts 75°
2026-05-03 22:42 35.70549 140.70842 12790 ft 448 kts 75°
2026-05-03 22:42 35.71400 140.74545 13160 ft 451 kts 76°
2026-05-03 22:43 35.71932 140.78341 13486 ft 451 kts 89°
2026-05-03 22:43 35.71760 140.82173 13769 ft 447 kts 104°
2026-05-03 22:43 35.71047 140.85889 14066 ft 446 kts 111°
2026-05-03 22:43 35.70087 140.89519 14356 ft 447 kts 114°
2026-05-03 22:44 35.69006 140.93103 14656 ft 449 kts 116°
2026-05-03 22:44 35.67875 140.96692 14976 ft 451 kts 116°
2026-05-03 22:44 35.66738 141.00303 15269 ft 454 kts 116°
2026-05-03 22:44 35.65613 141.03938 15576 ft 457 kts 116°
2026-05-03 22:45 35.64500 141.07604 15869 ft 459 kts 115°
2026-05-03 22:45 35.63393 141.11302 16147 ft 462 kts 115°
2026-05-03 22:45 35.62285 141.15030 16438 ft 465 kts 115°
2026-05-03 22:45 35.61178 141.18769 16719 ft 467 kts 115°
2026-05-03 22:46 35.60062 141.22535 16991 ft 470 kts 115°
2026-05-03 22:46 35.58940 141.26316 17267 ft 472 kts 115°
2026-05-03 22:46 35.57810 141.30117 17544 ft 475 kts 115°
2026-05-03 22:46 35.56674 141.33928 17816 ft 477 kts 115°
2026-05-03 22:47 35.55528 141.37763 18060 ft 479 kts 115°
2026-05-03 22:47 35.54378 141.41609 18295 ft 481 kts 115°
2026-05-03 22:47 35.53222 141.45468 18542 ft 483 kts 115°
2026-05-03 22:47 35.52060 141.49340 18784 ft 484 kts 115°
2026-05-03 22:48 35.50892 141.53230 19021 ft 486 kts 115°
2026-05-03 22:48 35.49722 141.57120 19256 ft 487 kts 115°
2026-05-03 22:48 35.48544 141.61031 19492 ft 489 kts 115°
2026-05-03 22:48 35.47362 141.64950 19714 ft 491 kts 115°
2026-05-03 22:49 35.46176 141.68876 19953 ft 492 kts 115°
2026-05-03 22:49 35.45092 141.72872 20162 ft 498 kts 109°
2026-05-03 22:49 35.44429 141.77078 20379 ft 504 kts 99°
2026-05-03 22:49 35.44168 141.81375 20630 ft 507 kts 95°
2026-05-03 22:50 35.44061 141.85703 20885 ft 509 kts 93°
2026-05-03 22:50 35.44033 141.90053 21122 ft 511 kts 92°
2026-05-03 22:50 35.44035 141.94427 21339 ft 513 kts 92°
2026-05-03 22:50 35.44038 141.98744 21561 ft 515 kts 92°
2026-05-03 22:51 35.44031 142.03140 21786 ft 516 kts 92°
2026-05-03 22:51 35.44011 142.07595 22004 ft 517 kts 92°
2026-05-03 22:51 35.43980 142.11963 22212 ft 519 kts 92°
2026-05-03 22:51 35.43941 142.16450 22431 ft 520 kts 92°
2026-05-03 22:52 35.43899 142.20834 22639 ft 522 kts 92°
2026-05-03 22:52 35.43853 142.25293 22838 ft 524 kts 92°
2026-05-03 22:52 35.43806 142.29762 23055 ft 525 kts 92°
2026-05-03 22:52 35.43758 142.34252 23256 ft 527 kts 92°
2026-05-03 22:53 35.43708 142.38740 23423 ft 528 kts 92°
2026-05-03 22:53 35.43656 142.43256 23585 ft 530 kts 92°
2026-05-03 22:53 35.43603 142.47782 23764 ft 531 kts 92°
2026-05-03 22:53 35.43549 142.52309 23940 ft 532 kts 92°
2026-05-03 22:54 35.43495 142.56849 24114 ft 533 kts 92°
2026-05-03 22:54 35.43439 142.61402 24289 ft 534 kts 92°
2026-05-03 22:54 35.43379 142.65963 24465 ft 536 kts 92°
2026-05-03 22:54 35.43315 142.70535 24632 ft 537 kts 92°
2026-05-03 22:55 35.43249 142.75119 24807 ft 538 kts 92°
2026-05-03 22:55 35.43182 142.79709 24974 ft 539 kts 92°
2026-05-03 22:55 35.43113 142.84310 25148 ft 541 kts 92°
2026-05-03 22:55 35.43043 142.88924 25320 ft 542 kts 92°
2026-05-03 22:56 35.42972 142.93543 25493 ft 543 kts 92°
2026-05-03 22:56 35.42898 142.98178 25668 ft 544 kts 92°
2026-05-03 22:56 35.42822 143.02821 25841 ft 546 kts 92°
2026-05-03 22:56 35.42745 143.07479 26018 ft 547 kts 92°
2026-05-03 22:57 35.42665 143.12149 26194 ft 548 kts 92°
2026-05-03 22:57 35.42589 143.16823 26378 ft 549 kts 91°
2026-05-03 22:57 35.42791 143.21492 26542 ft 551 kts 82°
2026-05-03 22:57 35.43546 143.26105 26708 ft 551 kts 72°
2026-05-03 22:58 35.44903 143.30479 26867 ft 549 kts 61°
2026-05-03 22:58 35.46847 143.34481 27040 ft 545 kts 50°
2026-05-03 22:58 35.49307 143.37973 27201 ft 539 kts 39°
2026-05-03 22:58 35.52191 143.40864 27382 ft 532 kts 28°
2026-05-03 22:59 35.55373 143.43094 27556 ft 525 kts 20°
2026-05-03 22:59 35.58597 143.45239 27719 ft 529 kts 24°
2026-05-03 22:59 35.61802 143.47470 27897 ft 530 kts 24°
2026-05-03 22:59 35.65013 143.49709 28090 ft 531 kts 24°
2026-05-03 23:00 35.68222 143.51970 28258 ft 532 kts 24°
2026-05-03 23:00 35.71427 143.54254 28418 ft 533 kts 24°
2026-05-03 23:00 35.74628 143.56556 28594 ft 534 kts 24°
2026-05-03 23:00 35.77827 143.58871 28846 ft 533 kts 24°
2026-05-03 23:01 35.81017 143.61188 29092 ft 532 kts 24°
2026-05-03 23:01 35.84198 143.63502 29318 ft 531 kts 24°
2026-05-03 23:01 35.87375 143.65814 29576 ft 530 kts 24°
2026-05-03 23:01 35.90548 143.68124 29822 ft 529 kts 24°
2026-05-03 23:02 35.93718 143.70432 30002 ft 529 kts 24°
2026-05-03 23:02 35.96886 143.72741 30149 ft 529 kts 24°
2026-05-03 23:02 36.00061 143.75052 30090 ft 532 kts 26°
2026-05-03 23:02 36.03276 143.77384 29912 ft 541 kts 26°
2026-05-03 23:03 36.06544 143.79766 29876 ft 547 kts 26°
2026-05-03 23:03 36.13125 143.84587 29990 ft 553 kts 26°
2026-05-03 23:04 36.19769 143.89467 30125 ft 558 kts 26°
2026-05-03 23:04 36.26472 143.94403 30292 ft 561 kts 26°
2026-05-03 23:04 36.29825 143.96876 30450 ft 561 kts 26°
2026-05-03 23:05 36.33178 143.99349 30628 ft 561 kts 26°
2026-05-03 23:05 36.36526 144.01819 30802 ft 560 kts 26°
2026-05-03 23:05 36.39876 144.04292 30976 ft 560 kts 26°
2026-05-03 23:05 36.43220 144.06764 31162 ft 559 kts 26°
2026-05-03 23:06 36.46518 144.09204 31338 ft 559 kts 26°
2026-05-03 23:06 36.49899 144.11709 31532 ft 558 kts 26°
2026-05-03 23:06 36.53184 144.14146 31684 ft 558 kts 26°
2026-05-03 23:06 36.56524 144.16625 31848 ft 558 kts 26°
2026-05-03 23:07 36.59856 144.19101 32012 ft 558 kts 26°
2026-05-03 23:07 36.63187 144.21580 32182 ft 558 kts 26°
2026-05-03 23:07 36.66517 144.24061 32340 ft 558 kts 26°
2026-05-03 23:07 36.69847 144.26543 32503 ft 558 kts 26°
2026-05-03 23:08 36.73180 144.29030 32642 ft 558 kts 26°
2026-05-03 23:08 36.79886 144.34039 32705 ft 565 kts 26°
2026-05-03 23:09 36.86624 144.39101 32705 ft 565 kts 26°
2026-05-03 23:09 36.93360 144.44168 32703 ft 565 kts 26°
2026-05-03 23:10 37.00093 144.49242 32703 ft 565 kts 26°
2026-05-03 23:10 37.06833 144.54333 32698 ft 565 kts 26°
2026-05-03 23:11 37.13565 144.59428 32697 ft 566 kts 26°
2026-05-03 23:11 37.20301 144.64536 32699 ft 566 kts 26°
2026-05-03 23:12 37.27034 144.69654 32699 ft 566 kts 26°
2026-05-03 23:12 37.33766 144.74782 32698 ft 566 kts 26°
2026-05-03 23:13 37.40451 144.79884 32688 ft 566 kts 27°
2026-05-03 23:13 37.46080 144.84190 32689 ft 565 kts 27°
2026-05-03 23:14 37.53889 144.90175 32685 ft 565 kts 27°
2026-05-03 23:14 37.60597 144.95329 32681 ft 565 kts 27°
2026-05-03 23:15 37.66220 144.99657 32684 ft 565 kts 27°
2026-05-03 23:15 37.72923 145.04826 32678 ft 565 kts 27°
2026-05-03 23:16 37.79638 145.10016 32673 ft 566 kts 27°
2026-05-03 23:16 37.86302 145.15178 32672 ft 566 kts 27°
2026-05-03 23:17 37.93019 145.20393 32666 ft 567 kts 27°
2026-05-03 23:17 37.99742 145.25623 32669 ft 567 kts 27°
2026-05-03 23:18 38.06472 145.30869 32673 ft 568 kts 27°
2026-05-03 23:18 38.13211 145.36134 32669 ft 569 kts 27°
2026-05-03 23:19 38.19958 145.41417 32669 ft 570 kts 27°
2026-05-03 23:19 38.26709 145.46715 32668 ft 571 kts 27°
2026-05-03 23:20 38.33364 145.52265 32815 ft 575 kts 36°
2026-05-03 23:20 38.36383 145.55576 33170 ft 573 kts 38°
2026-05-03 23:20 38.39346 145.58965 33451 ft 572 kts 39°
2026-05-03 23:20 38.42279 145.62398 33637 ft 572 kts 39°
2026-05-03 23:21 38.45201 145.65859 33667 ft 576 kts 40°
2026-05-03 23:21 38.51079 145.72851 33671 ft 578 kts 40°
2026-05-03 23:22 38.59904 145.83339 33676 ft 578 kts 39°
2026-05-03 23:22 38.65794 145.90338 33676 ft 579 kts 39°
2026-05-03 23:23 38.71694 145.97363 33672 ft 580 kts 39°
2026-05-03 23:23 38.77607 146.04421 33673 ft 581 kts 39°
2026-05-03 23:24 38.83526 146.11507 33672 ft 582 kts 39°
2026-05-03 23:24 38.89447 146.18613 33675 ft 583 kts 39°
2026-05-03 23:25 38.95364 146.25731 33675 ft 583 kts 39°
2026-05-03 23:25 39.01285 146.32871 33676 ft 584 kts 39°
2026-05-03 23:26 39.07202 146.40021 33680 ft 584 kts 39°
2026-05-03 23:26 39.13119 146.47189 33682 ft 584 kts 39°
2026-05-03 23:27 39.19029 146.54367 33683 ft 584 kts 39°
2026-05-03 23:27 39.24933 146.61553 33686 ft 584 kts 39°
2026-05-03 23:28 39.30838 146.68758 33687 ft 584 kts 39°
2026-05-03 23:28 39.36733 146.75969 33690 ft 584 kts 39°
2026-05-03 23:29 39.42622 146.83190 33695 ft 583 kts 39°
2026-05-03 23:29 39.48502 146.90418 33692 ft 583 kts 39°
2026-05-03 23:30 39.54385 146.97668 33696 ft 583 kts 39°
2026-05-03 23:30 39.60259 147.04924 33696 ft 584 kts 39°
2026-05-03 23:31 39.66128 147.12193 33688 ft 583 kts 39°
2026-05-03 23:31 39.71995 147.19476 33701 ft 583 kts 40°
2026-05-03 23:32 39.77853 147.26767 33708 ft 583 kts 40°
2026-05-03 23:32 39.83701 147.34064 33705 ft 583 kts 40°
2026-05-03 23:33 39.89554 147.41384 33710 ft 583 kts 40°
2026-05-03 23:33 39.95390 147.48702 33705 ft 582 kts 40°
2026-05-03 23:34 40.01221 147.56031 33709 ft 582 kts 40°
2026-05-03 23:34 40.07042 147.63366 33706 ft 582 kts 40°
2026-05-03 23:35 40.12860 147.70715 33711 ft 582 kts 40°
2026-05-03 23:35 40.18674 147.78079 33713 ft 581 kts 40°
2026-05-03 23:36 40.24472 147.85440 33714 ft 581 kts 40°
2026-05-03 23:36 40.30232 147.92771 33711 ft 581 kts 40°
2026-05-03 23:37 40.36025 148.00164 33717 ft 581 kts 40°
2026-05-03 23:37 40.41813 148.07568 33724 ft 581 kts 40°
2026-05-03 23:38 40.47601 148.14991 33724 ft 582 kts 40°
2026-05-03 23:38 40.53384 148.22427 33730 ft 582 kts 40°
2026-05-03 23:39 40.59171 148.29887 33725 ft 582 kts 40°
2026-05-03 23:39 40.64949 148.37355 33730 ft 583 kts 40°
2026-05-03 23:40 40.70731 148.44848 33735 ft 583 kts 40°
2026-05-03 23:40 40.76504 148.52347 33741 ft 583 kts 41°
2026-05-03 23:41 40.82273 148.59861 33740 ft 583 kts 41°
2026-05-03 23:41 40.88044 148.67395 33745 ft 583 kts 41°
2026-05-03 23:42 40.93807 148.74941 33748 ft 583 kts 41°
2026-05-03 23:42 40.99569 148.82505 33753 ft 583 kts 41°
2026-05-03 23:43 41.05326 148.90081 33758 ft 584 kts 41°
2026-05-03 23:43 41.11083 148.97683 33761 ft 584 kts 41°
2026-05-03 23:44 41.16834 149.05299 33768 ft 585 kts 41°
2026-05-03 23:44 41.22587 149.12934 33756 ft 585 kts 41°
2026-05-03 23:45 41.28337 149.20586 33764 ft 585 kts 41°
2026-05-03 23:45 41.34083 149.28253 33770 ft 586 kts 41°
2026-05-03 23:46 41.39828 149.35941 33774 ft 586 kts 41°
2026-05-03 23:46 41.45579 149.43656 33775 ft 586 kts 41°
2026-05-03 23:47 41.51321 149.51381 33775 ft 587 kts 41°
2026-05-03 23:47 41.57064 149.59128 33784 ft 587 kts 41°
2026-05-03 23:48 41.62801 149.66888 33784 ft 587 kts 40°
2026-05-03 23:48 41.68542 149.74673 33788 ft 588 kts 40°
2026-05-03 23:49 41.74285 149.82482 33796 ft 589 kts 40°
2026-05-03 23:49 41.79998 149.90272 33792 ft 591 kts 40°
2026-05-03 23:50 41.84825 149.96869 33796 ft 591 kts 40°
2026-05-03 23:50 41.91513 150.06036 33800 ft 592 kts 40°
2026-05-03 23:51 41.97269 150.13950 33797 ft 592 kts 40°
2026-05-03 23:51 42.03025 150.21885 33814 ft 593 kts 40°
2026-05-03 23:52 42.08784 150.29846 33806 ft 594 kts 40°
2026-05-03 23:52 42.14557 150.37846 33798 ft 595 kts 40°
2026-05-03 23:53 42.20324 150.45863 33823 ft 596 kts 40°
2026-05-03 23:53 42.26093 150.53903 33810 ft 597 kts 40°
2026-05-03 23:54 42.31872 150.61982 33816 ft 598 kts 40°
2026-05-03 23:54 42.37649 150.70083 33814 ft 599 kts 40°
2026-05-03 23:55 42.43428 150.78207 33819 ft 600 kts 40°
2026-05-03 23:55 42.49209 150.86357 33818 ft 600 kts 40°
2026-05-03 23:56 42.54989 150.94530 33820 ft 601 kts 40°
2026-05-03 23:56 42.60768 151.02724 33829 ft 601 kts 40°
2026-05-03 23:57 42.66544 151.10935 33827 ft 601 kts 40°
2026-05-03 23:57 42.72321 151.19173 33832 ft 602 kts 40°
2026-05-03 23:58 42.77113 151.26025 33831 ft 602 kts 40°
2026-05-03 23:58 42.82873 151.34284 33831 ft 601 kts 40°
2026-05-03 23:59 42.88617 151.42543 33835 ft 601 kts 40°
2026-05-03 23:59 42.94365 151.50831 33833 ft 600 kts 40°
2026-05-04 00:00 43.00092 151.59112 33838 ft 600 kts 40°
2026-05-04 00:00 43.05809 151.67404 33839 ft 599 kts 40°
2026-05-04 00:01 43.11516 151.75705 33844 ft 598 kts 40°
2026-05-04 00:01 43.17210 151.84011 33840 ft 598 kts 40°
2026-05-04 00:02 43.22892 151.92324 33838 ft 597 kts 40°
2026-05-04 00:02 43.28564 152.00647 33845 ft 597 kts 40°
2026-05-04 00:03 43.34221 152.08972 33843 ft 596 kts 40°
2026-05-04 00:03 43.39866 152.17305 33847 ft 595 kts 40°
2026-05-04 00:04 43.45490 152.25631 33850 ft 593 kts 40°
2026-05-04 00:04 43.51102 152.33961 33848 ft 593 kts 40°
2026-05-04 00:05 43.56704 152.42301 33850 ft 592 kts 40°
2026-05-04 00:05 43.62293 152.50647 33855 ft 592 kts 40°
2026-05-04 00:06 43.67870 152.59001 33857 ft 591 kts 40°
2026-05-04 00:06 43.73436 152.67362 33861 ft 591 kts 40°
2026-05-04 00:07 43.78989 152.75728 33859 ft 591 kts 40°
2026-05-04 00:07 43.84539 152.84115 33865 ft 590 kts 40°
2026-05-04 00:08 43.90083 152.92517 33865 ft 591 kts 40°
2026-05-04 00:08 43.95588 153.00884 33873 ft 591 kts 40°
2026-05-04 00:09 44.01155 153.09372 33875 ft 591 kts 40°
2026-05-04 00:09 44.06685 153.17829 33880 ft 591 kts 40°
2026-05-04 00:10 44.12211 153.26305 33879 ft 591 kts 40°
2026-05-04 00:10 44.17697 153.34744 33891 ft 592 kts 40°
2026-05-04 00:11 44.23213 153.43256 33887 ft 592 kts 40°
2026-05-04 00:11 44.28728 153.51791 33903 ft 592 kts 40°
2026-05-04 00:12 44.34242 153.60351 33896 ft 593 kts 40°
2026-05-04 00:12 44.39748 153.68924 33903 ft 593 kts 40°
2026-05-04 00:13 44.45255 153.77526 33908 ft 593 kts 40°
2026-05-04 00:13 44.50760 153.86151 33917 ft 594 kts 40°
2026-05-04 00:14 44.56259 153.94793 33919 ft 594 kts 40°
2026-05-04 00:14 44.61755 154.03457 33918 ft 595 kts 40°
2026-05-04 00:15 44.67254 154.12153 33922 ft 595 kts 40°
2026-05-04 00:15 44.72744 154.20862 33929 ft 595 kts 40°
2026-05-04 00:16 44.78232 154.29594 33935 ft 596 kts 40°
2026-05-04 00:16 44.83719 154.38352 33964 ft 596 kts 40°
2026-05-04 00:17 44.86451 154.42727 34209 ft 593 kts 40°
2026-05-04 00:17 44.89146 154.47093 34512 ft 591 kts 41°
2026-05-04 00:17 44.91826 154.51501 34738 ft 590 kts 41°
2026-05-04 00:17 44.94483 154.55899 34911 ft 591 kts 41°
2026-05-04 00:18 44.99812 154.64729 34956 ft 597 kts 41°
2026-05-04 00:18 45.05189 154.73650 34954 ft 596 kts 41°
2026-05-04 00:19 45.10556 154.82572 34956 ft 595 kts 41°
2026-05-04 00:19 45.15912 154.91495 34960 ft 594 kts 41°
2026-05-04 00:20 45.21255 155.00423 34963 ft 594 kts 41°
2026-05-04 00:20 45.26598 155.09383 34964 ft 594 kts 41°
2026-05-04 00:21 45.31921 155.18341 34969 ft 593 kts 41°
2026-05-04 00:21 45.37239 155.27318 34973 ft 593 kts 41°
2026-05-04 00:22 45.42546 155.36303 34975 ft 593 kts 41°
2026-05-04 00:22 45.47836 155.45288 34971 ft 592 kts 41°
2026-05-04 00:23 45.53117 155.54285 34973 ft 591 kts 41°
2026-05-04 00:23 45.58387 155.63295 34972 ft 591 kts 41°
2026-05-04 00:24 45.63641 155.72306 34972 ft 590 kts 41°
2026-05-04 00:24 45.68881 155.81321 34985 ft 589 kts 41°
2026-05-04 00:25 45.74074 155.90285 34972 ft 589 kts 41°
2026-05-04 00:25 45.79289 155.99315 34975 ft 588 kts 41°
2026-05-04 00:26 45.84488 156.08348 34978 ft 587 kts 41°
2026-05-04 00:26 45.89674 156.17389 34976 ft 586 kts 41°
2026-05-04 00:27 45.94844 156.26429 34974 ft 585 kts 41°
2026-05-04 00:27 46.00003 156.35479 34975 ft 585 kts 40°
2026-05-04 00:28 46.05152 156.44541 34974 ft 584 kts 40°
2026-05-04 00:28 46.10280 156.53595 34972 ft 583 kts 40°
2026-05-04 00:29 46.15403 156.62669 34972 ft 583 kts 40°
2026-05-04 00:29 46.20503 156.71734 34967 ft 583 kts 40°
2026-05-04 00:30 46.25611 156.80842 34974 ft 582 kts 40°
2026-05-04 00:30 46.30695 156.89938 34968 ft 582 kts 40°
2026-05-04 00:31 46.35773 156.99053 34967 ft 581 kts 40°
2026-05-04 00:31 46.40833 157.08165 34965 ft 581 kts 40°
2026-05-04 00:32 46.45884 157.17290 34961 ft 580 kts 40°
2026-05-04 00:32 46.50925 157.26429 34956 ft 579 kts 40°
2026-05-04 00:33 46.58456 157.40136 34956 ft 578 kts 40°
2026-05-04 00:34 46.63460 157.49282 34954 ft 578 kts 40°
2026-05-04 00:34 46.68452 157.58435 34951 ft 577 kts 40°
2026-05-04 00:35 46.73431 157.67595 34948 ft 576 kts 40°
2026-05-04 00:35 46.78396 157.76761 34945 ft 575 kts 40°
2026-05-04 00:36 46.83339 157.85917 34939 ft 575 kts 40°
2026-05-04 00:36 46.88282 157.95101 34940 ft 574 kts 40°
2026-05-04 00:37 46.93203 158.04275 34930 ft 573 kts 40°
2026-05-04 00:37 46.98114 158.13463 34932 ft 572 kts 40°
2026-05-04 00:38 47.03012 158.22652 34927 ft 572 kts 40°
2026-05-04 00:38 47.07907 158.31869 34922 ft 572 kts 40°
2026-05-04 00:39 47.12787 158.41089 34920 ft 572 kts 40°
2026-05-04 00:39 47.17665 158.50337 34914 ft 572 kts 40°
2026-05-04 00:40 47.22536 158.59603 34908 ft 572 kts 40°
2026-05-04 00:40 47.27397 158.68880 34907 ft 572 kts 40°
2026-05-04 00:41 47.32250 158.78174 34902 ft 572 kts 40°
2026-05-04 00:41 47.37092 158.87479 34894 ft 572 kts 40°
2026-05-04 00:42 47.41929 158.96806 34890 ft 572 kts 39°
2026-05-04 00:42 47.46758 159.06148 34887 ft 572 kts 39°
2026-05-04 00:43 47.50763 159.13920 34885 ft 572 kts 39°
2026-05-04 00:43 47.55581 159.23300 34878 ft 572 kts 40°
2026-05-04 00:44 47.61174 159.34227 34870 ft 573 kts 40°
2026-05-04 00:44 47.65201 159.42122 34865 ft 573 kts 40°
2026-05-04 00:45 47.69997 159.51557 34859 ft 573 kts 40°
2026-05-04 00:45 47.74798 159.61034 34849 ft 574 kts 40°
2026-05-04 00:46 47.79560 159.70465 34847 ft 574 kts 40°
2026-05-04 00:46 47.84376 159.80040 34841 ft 574 kts 40°
2026-05-04 00:47 47.89152 159.89566 34832 ft 574 kts 40°
2026-05-04 00:47 47.93891 159.99050 34826 ft 574 kts 40°
2026-05-04 00:48 47.98648 160.08607 34823 ft 573 kts 40°
2026-05-04 00:48 48.03392 160.18170 34813 ft 573 kts 40°
2026-05-04 00:49 48.08125 160.27744 34808 ft 572 kts 40°
2026-05-04 00:49 48.12837 160.37309 34801 ft 571 kts 40°
2026-05-04 00:50 48.17547 160.46904 34796 ft 570 kts 40°
2026-05-04 00:50 48.22229 160.56477 34788 ft 569 kts 40°
2026-05-04 00:51 48.26897 160.66054 34781 ft 568 kts 40°
2026-05-04 00:51 48.31511 160.75715 34777 ft 570 kts 42°
2026-05-04 00:52 48.36003 160.85538 34770 ft 569 kts 43°
2026-05-04 00:52 48.40464 160.95351 34762 ft 567 kts 43°
2026-05-04 00:53 48.44919 161.05123 34757 ft 565 kts 43°
2026-05-04 00:53 48.49368 161.14883 34746 ft 564 kts 44°
2026-05-04 00:54 48.53795 161.24618 34745 ft 562 kts 44°
2026-05-04 00:54 48.58203 161.34350 34739 ft 561 kts 44°
2026-05-04 00:55 48.62589 161.44071 34723 ft 560 kts 45°
2026-05-04 00:55 48.66959 161.53794 34728 ft 558 kts 45°
2026-05-04 00:56 48.71312 161.63514 34721 ft 557 kts 46°
2026-05-04 00:56 48.75645 161.73223 34714 ft 555 kts 46°
2026-05-04 00:57 48.79956 161.82919 34707 ft 554 kts 47°
2026-05-04 00:57 48.84247 161.92606 34703 ft 552 kts 47°
2026-05-04 00:58 48.88516 162.02277 34701 ft 551 kts 47°
2026-05-04 00:58 48.92766 162.11940 34690 ft 549 kts 47°
2026-05-04 00:59 48.97000 162.21602 34687 ft 548 kts 48°
2026-05-04 00:59 49.01212 162.31247 34682 ft 546 kts 48°
2026-05-04 01:00 49.05401 162.40873 34674 ft 544 kts 49°
2026-05-04 01:00 49.09565 162.50479 34671 ft 542 kts 49°
2026-05-04 01:01 49.13710 162.60074 34656 ft 541 kts 49°
2026-05-04 01:01 49.17834 162.69654 34659 ft 539 kts 50°
2026-05-04 01:02 49.21942 162.79230 34648 ft 538 kts 50°
2026-05-04 01:02 49.26026 162.88787 34644 ft 536 kts 50°
2026-05-04 01:03 49.30094 162.98341 34640 ft 535 kts 50°
2026-05-04 01:03 49.34147 163.07892 34636 ft 533 kts 51°
2026-05-04 01:04 49.38175 163.17417 34635 ft 532 kts 51°
2026-05-04 01:04 49.42161 163.26879 34620 ft 530 kts 51°
2026-05-04 01:05 49.46180 163.36454 34622 ft 529 kts 51°
2026-05-04 01:05 49.50134 163.45905 34616 ft 528 kts 51°
2026-05-04 01:06 49.54089 163.55395 34612 ft 526 kts 52°
2026-05-04 01:06 49.58031 163.64887 34605 ft 525 kts 52°
2026-05-04 01:07 49.61950 163.74357 34601 ft 523 kts 52°
2026-05-04 01:07 49.65851 163.83819 34595 ft 522 kts 52°
2026-05-04 01:08 49.69734 163.93268 34594 ft 521 kts 53°
2026-05-04 01:08 49.73604 164.02723 34592 ft 520 kts 53°
2026-05-04 01:09 49.77464 164.12184 34585 ft 520 kts 53°
2026-05-04 01:09 49.81309 164.21644 34581 ft 519 kts 53°
2026-05-04 01:10 49.85137 164.31097 34578 ft 518 kts 53°
2026-05-04 01:10 49.88951 164.40548 34571 ft 516 kts 53°
2026-05-04 01:11 49.92741 164.49975 34578 ft 515 kts 54°
2026-05-04 01:11 49.96519 164.59404 34570 ft 513 kts 54°
2026-05-04 01:12 50.00279 164.68825 34559 ft 512 kts 54°
2026-05-04 01:12 50.02154 164.73535 34562 ft 512 kts 54°